[[{"header":{"parameterUnit":"m.s-1","parameterCategory":1,"la1":30.2991,"la2":30.254,"lo1":-89.0895,"lo2":-89.0444,"dy":0.0017,"dx":0.0017,"nx":28,"ny":28,"refTime":"2024-02-21T09:00:00:Z","depth":0,"parameterNumber":2,"parameterNumberName":"U-component_of_WINDS"},"data":[0,0,0,0,0,0,0,0,0,0,0,0,0,0,0,0,0,0,0,0,0,0,0,0,0,0,0,0,0,0,0,0,0,0,0,0,0,0,0,0,0,0,0,0,0,0,0,0,0,0,0,0,0,0,0,0,0,0,3.2755,3.2755,0,3.2783,3.2783,3.2784,3.2749,3.2748,3.2747,3.2745,3.2777,3.2778,3.278,0,0,0,0,0,0,0,0,0,0,0,0,0,3.2675,3.2677,3.2755,3.2755,3.2755,3.2783,3.2783,3.2784,3.2749,3.2748,3.2746,3.2745,3.2776,3.2778,3.2781,0,0,0,0,0,0,0,0,0,0,0,0,0,3.2707,3.2677,3.2755,3.2742,3.2741,3.2783,3.2783,3.2784,3.275,3.2748,3.2746,3.2744,3.2775,3.2778,3.2781,3.2838,0,0,3.279,3.2792,0,0,0,0,0,0,0,0,3.2705,3.271,3.2743,3.2743,3.2742,3.276,3.2766,3.2802,3.275,3.2746,3.2745,3.2743,3.2773,3.2776,3.2786,3.2839,3.2841,3.2791,3.2792,3.2794,3.2795,0,0,0,0,0,0,0,3.2703,3.2709,3.2766,3.2744,3.2743,3.2736,3.2738,3.2773,3.277,3.2747,3.2744,3.2748,3.2772,3.2783,3.2786,3.2841,3.279,3.2793,3.2795,3.2796,3.2945,3.2947,0,0,0,0,0,0,3.2702,3.2707,3.2765,3.2767,3.2718,3.2739,3.2741,3.2756,3.277,3.277,3.2749,3.2746,3.2778,3.2783,3.2787,3.2855,3.2794,3.2796,3.2798,3.2943,3.2946,3.2948,0,0,0,0,0,0,3.27,3.2708,3.2764,3.2736,3.2743,3.2742,3.2759,3.2758,3.2768,3.2772,3.2771,3.276,3.2777,3.2783,3.2826,3.2856,3.2798,3.2801,3.2941,3.2944,3.2947,3.2992,0,0,0,0,0,0,3.2698,3.2707,3.2728,3.2737,3.2744,3.2801,3.2761,3.276,3.2773,3.2769,3.2782,3.2782,3.2776,3.2821,3.2829,3.2859,3.2803,3.2938,3.2942,3.2946,3.2988,3.2997,3.3004,0,0,0,0,0,3.2696,3.2739,3.2729,3.2736,3.277,3.2803,3.2807,3.2798,3.2776,3.2797,3.28,3.2782,3.2852,3.2826,3.2834,3.2866,3.2936,3.2941,3.2946,3.2985,3.2995,3.3004,0,0,0,0,0,0,3.2734,3.274,3.2729,3.2776,3.2789,3.2797,3.2823,3.281,3.283,3.2825,3.2814,3.2818,3.2864,3.2869,3.2841,3.2923,3.289,3.2897,3.2917,3.2927,3.2935,3.2932,3.2805,0,0,0,0,0,3.2748,3.2773,3.2778,3.2819,3.2827,3.2824,3.2838,3.2831,3.2844,3.2849,3.2855,3.2869,3.2894,3.2911,3.2934,3.2989,3.2992,3.3015,3.3023,3.303,3.3035,3.3066,3.3077,3.2964,3.2964,3.2964,0,0,3.2776,3.2783,3.28,3.2827,3.2836,3.2864,3.2829,3.2859,3.288,3.2854,3.2895,3.29,3.2915,3.2965,3.2987,3.2971,3.3068,3.3036,3.3041,3.3043,3.3072,3.3083,3.3093,3.2967,3.2967,3.2966,0,0,3.2843,3.2851,3.2887,3.2897,3.2912,3.291,3.2919,3.2929,3.2932,3.2973,3.2954,3.298,3.3023,3.3035,3.3047,3.3122,3.3106,3.313,3.3171,3.3202,3.321,3.3218,3.3246,3.3255,3.3136,3.3136,3.3136,0,3.2878,3.2917,3.2907,3.294,3.2953,3.2931,3.2969,3.2979,3.3001,3.3011,3.2993,3.3048,3.3057,3.311,3.3128,3.3139,3.315,3.3128,3.321,3.3218,3.3225,3.3251,3.3261,3.3139,3.3138,3.3138,3.3138,0,3.2959,3.2988,3.3016,3.3037,3.3054,3.3088,3.3085,3.3104,3.3095,3.3097,3.314,3.315,3.3176,3.3188,3.318,3.324,3.323,3.3211,3.3178,3.3238,3.3263,3.3273,3.3143,3.3142,3.3141,3.314,0,0,3.3049,3.3066,3.3076,3.3087,3.3102,3.3124,3.3159,3.3184,3.3201,3.3217,3.3247,3.3286,3.3269,3.3282,3.3276,3.3303,3.3363,3.3281,3.3281,3.3296,3.3431,3.3445,3.3457,3.3353,3.3355,3.3356,3.343,0,3.3116,3.3175,3.3169,3.3226,3.3253,3.3234,3.3265,3.3278,3.3281,3.3305,3.3309,3.3336,3.3311,3.332,3.3345,3.335,3.339,3.3345,3.3382,3.3383,3.3378,3.3469,3.3484,3.3552,3.3439,3.3441,3.3442,0,3.3201,3.3221,3.3281,3.3295,3.3306,3.3333,3.3357,3.338,3.3396,3.3396,3.3413,3.3403,3.3439,3.3407,3.3458,3.3428,3.3443,3.3448,3.345,3.3453,3.3416,3.3475,3.3574,3.3584,3.3457,3.3456,3.3455,0,3.3261,3.3303,3.3344,3.3354,3.337,3.3391,3.3399,3.3413,3.3429,3.345,3.3461,3.3486,3.35,3.3521,3.3519,3.3495,3.3571,3.3538,3.3573,3.3574,3.3589,3.3588,3.3693,3.36,3.36,3.36,3.3599,0,3.3336,3.3374,3.3372,3.3397,3.3439,3.3433,3.3475,3.3481,3.3494,3.3522,3.3508,3.3534,3.3529,3.3556,3.3555,3.3598,3.3605,3.3607,3.3606,3.3608,3.3608,3.3617,3.3612,3.3602,3.3602,3.3601,3.3601,0,3.3409,3.3409,3.3453,3.3466,3.3471,3.3501,3.3513,3.3538,3.354,3.3575,3.3583,3.3587,3.3618,3.3618,3.3654,3.3653,3.3706,3.37,3.3701,3.3699,3.3735,3.3731,3.3848,3.3864,3.3761,3.3762,3.3763,0,3.3457,3.3485,3.3502,3.3519,3.3528,3.3556,3.3573,3.3569,3.3587,3.3609,3.3632,3.3662,3.3685,3.3736,3.3743,3.3771,3.3765,3.3804,3.3769,3.377,3.3766,3.3764,3.3767,3.3811,3.3812,3.3813,3.3814,0,3.3541,3.3541,3.3565,3.359,3.3611,3.3631,3.3649,3.3664,3.3662,3.3684,3.3715,3.3734,3.3771,3.3801,3.3828,3.3838,3.3826,3.3825,3.3835,3.3836,3.3835,3.3837,3.3719,3.3822,3.3821,3.382,3.382,3.382,3.3603,3.3628,3.3644,3.3672,3.3686,3.3704,3.3729,3.3735,3.3761,3.379,3.3787,3.3822,3.3841,3.3876,3.3888,3.3917,3.3903,3.3917,3.392,3.3924,3.3928,3.3832,3.3922,3.3921,3.3921,3.3921,3.3921,0,3.3687,3.3697,3.3723,3.375,3.3773,3.376,3.378,3.38,3.3832,3.3849,3.3873,3.3911,3.3941,3.3951,3.398,3.4002,3.3997,3.4009,3.4007,3.401,3.3938,3.3927,3.4013,3.4013,3.4013,3.4013,3.4013,3.4013,3.3733,3.3775,3.3777,3.3827,3.3837,3.3871,3.3884,3.3902,3.3916,3.3958,3.3983,3.3989,3.4005,3.4036,3.4063,3.4066,3.4077,3.4092,3.4092,3.4024,3.4015,3.4006,3.3995,3.4094,3.4095,3.4162,3.4162,3.4163]},{"header":{"parameterUnit":"m.s-1","parameterCategory":1,"la1":30.2991,"la2":30.254,"lo1":-89.0895,"lo2":-89.0444,"dy":0.0017,"dx":0.0017,"nx":28,"ny":28,"refTime":"2024-02-21T09:00:00:Z","depth":0,"parameterNumber":3,"parameterNumberName":"V-component_of_WINDS"},"data":[0,0,0,0,0,0,0,0,0,0,0,0,0,0,0,0,0,0,0,0,0,0,0,0,0,0,0,0,0,0,0,0,0,0,0,0,0,0,0,0,0,0,0,0,0,0,0,0,0,0,0,0,0,0,0,0,0,0,1.7353,1.7354,0,1.7432,1.7433,1.7433,1.7447,1.7446,1.7445,1.7445,1.7523,1.7526,1.7528,0,0,0,0,0,0,0,0,0,0,0,0,0,1.7213,1.7216,1.7353,1.7354,1.7355,1.7431,1.7433,1.7434,1.7447,1.7446,1.7445,1.7444,1.7522,1.7525,1.7529,0,0,0,0,0,0,0,0,0,0,0,0,0,1.7281,1.7217,1.7353,1.7371,1.7373,1.7431,1.7433,1.7434,1.7447,1.7446,1.7445,1.7444,1.7521,1.7525,1.7529,1.7574,0,0,1.7542,1.7543,0,0,0,0,0,0,0,0,1.7277,1.7286,1.7367,1.737,1.7373,1.7428,1.7412,1.7481,1.7447,1.7419,1.7445,1.7443,1.7492,1.7499,1.7515,1.7578,1.7581,1.7542,1.7544,1.7546,1.7547,0,0,0,0,0,0,0,1.7272,1.7283,1.7384,1.7369,1.7372,1.7374,1.7383,1.7425,1.746,1.7421,1.7422,1.7432,1.7494,1.7512,1.7517,1.7582,1.7542,1.7545,1.7548,1.755,1.7686,1.7687,0,0,0,0,0,0,1.7265,1.7279,1.7382,1.7387,1.7322,1.7378,1.7387,1.7411,1.746,1.7466,1.7432,1.7432,1.7505,1.7513,1.752,1.7577,1.7546,1.755,1.7552,1.7684,1.7686,1.7687,0,0,0,0,0,0,1.7262,1.7274,1.7379,1.7333,1.7347,1.7381,1.7408,1.7414,1.7432,1.7468,1.7474,1.7445,1.7505,1.7515,1.7561,1.7579,1.7552,1.7555,1.7683,1.7685,1.7686,1.7689,0,0,0,0,0,0,1.7258,1.7273,1.7291,1.7333,1.7349,1.7419,1.7409,1.7416,1.7439,1.7439,1.7481,1.7487,1.7505,1.7555,1.7565,1.7585,1.7559,1.7681,1.7684,1.7686,1.7688,1.7691,1.7694,0,0,0,0,0,1.7253,1.7288,1.7292,1.7304,1.7372,1.742,1.7428,1.7448,1.744,1.7458,1.7482,1.7486,1.7575,1.7559,1.7571,1.7592,1.768,1.7683,1.7686,1.7686,1.769,1.7694,0,0,0,0,0,0,1.7246,1.7294,1.7298,1.7349,1.738,1.7422,1.7445,1.7452,1.7486,1.7484,1.7507,1.7516,1.7561,1.7581,1.7562,1.7638,1.7627,1.7632,1.7624,1.7628,1.7631,1.7625,1.7562,0,0,0,0,0,1.7251,1.7285,1.7325,1.7366,1.7381,1.741,1.7432,1.7444,1.7477,1.749,1.7517,1.7549,1.7584,1.7607,1.7641,1.769,1.77,1.771,1.7713,1.7715,1.772,1.7747,1.7753,1.7696,1.7696,1.7696,0,0,1.726,1.729,1.7311,1.7365,1.7391,1.7426,1.7422,1.7459,1.7485,1.7496,1.7542,1.7562,1.7599,1.7647,1.7669,1.7665,1.7738,1.7719,1.772,1.7724,1.7751,1.7756,1.7761,1.7698,1.7697,1.7697,0,0,1.7296,1.7322,1.7359,1.7385,1.7424,1.7443,1.7452,1.7493,1.7507,1.7553,1.7562,1.7593,1.7653,1.7679,1.77,1.7745,1.775,1.7755,1.7771,1.7797,1.7802,1.7806,1.7822,1.7828,1.7759,1.7759,1.7759,0,1.7303,1.7357,1.7377,1.7415,1.7438,1.7449,1.7487,1.7511,1.7559,1.7574,1.7568,1.7644,1.767,1.7724,1.7735,1.7751,1.7762,1.7751,1.78,1.7804,1.7808,1.7824,1.783,1.7759,1.7759,1.7759,1.7759,0,1.7363,1.7401,1.7426,1.7473,1.7499,1.7536,1.7561,1.7585,1.7594,1.7614,1.7661,1.7691,1.7732,1.7746,1.7755,1.7801,1.7797,1.7795,1.7785,1.7814,1.7829,1.7835,1.776,1.776,1.776,1.776,0,0,1.7398,1.7456,1.7464,1.7486,1.753,1.7559,1.7595,1.7636,1.7656,1.7688,1.772,1.7771,1.7769,1.7793,1.7805,1.7828,1.7862,1.7824,1.7825,1.783,1.7915,1.7917,1.7923,1.7865,1.7867,1.7868,1.7912,0,1.7439,1.7507,1.7526,1.7583,1.7618,1.7629,1.7661,1.7691,1.771,1.7742,1.7762,1.7798,1.7793,1.7807,1.783,1.7853,1.788,1.785,1.7895,1.7896,1.7887,1.7931,1.7934,1.7974,1.7918,1.7919,1.792,0,1.7497,1.7531,1.7592,1.7631,1.7647,1.7675,1.7714,1.7744,1.7778,1.779,1.7816,1.7827,1.7865,1.7852,1.7905,1.7885,1.7904,1.7918,1.792,1.7926,1.7911,1.7939,1.7987,1.7994,1.7929,1.7928,1.7928,0,1.7517,1.7578,1.7623,1.764,1.7687,1.7707,1.7727,1.776,1.7783,1.7817,1.7832,1.7869,1.7889,1.7917,1.7937,1.7926,1.7989,1.7977,1.8,1.7999,1.8014,1.8013,1.8067,1.8024,1.8024,1.8024,1.8024,0,1.7562,1.7599,1.7632,1.766,1.7701,1.7722,1.7762,1.7782,1.7811,1.7842,1.7853,1.7882,1.7906,1.7938,1.7954,1.7996,1.8004,1.8015,1.8019,1.8015,1.8014,1.8028,1.8026,1.8026,1.8025,1.8025,1.8025,0,1.7592,1.7616,1.7665,1.7705,1.7716,1.7745,1.7779,1.7805,1.7824,1.7863,1.7874,1.7903,1.7941,1.7963,1.8011,1.8022,1.8068,1.807,1.8057,1.8059,1.8081,1.8079,1.8147,1.8157,1.8107,1.8108,1.8108,0,1.7619,1.7648,1.7691,1.7713,1.7734,1.7769,1.7793,1.7814,1.7838,1.7879,1.79,1.7939,1.7971,1.8031,1.8056,1.8093,1.8097,1.8118,1.8102,1.8097,1.8098,1.8096,1.8099,1.8121,1.8121,1.8122,1.8122,0,1.7666,1.7676,1.771,1.7749,1.7777,1.7808,1.7839,1.7856,1.7882,1.7908,1.7948,1.7973,1.8021,1.806,1.8098,1.8118,1.8125,1.8126,1.8134,1.813,1.8122,1.8127,1.8065,1.8125,1.8125,1.8125,1.8124,1.8124,1.7696,1.7722,1.7757,1.7794,1.782,1.7848,1.7875,1.7898,1.7931,1.7973,1.7983,1.8024,1.8057,1.8109,1.813,1.8162,1.8159,1.8169,1.8172,1.8175,1.8176,1.8116,1.8169,1.8169,1.8169,1.8169,1.8169,0,1.7743,1.7766,1.7801,1.7844,1.7873,1.7877,1.7911,1.7935,1.7971,1.8002,1.8033,1.8078,1.8115,1.8143,1.8181,1.8201,1.8205,1.821,1.821,1.8214,1.8176,1.8167,1.8207,1.8207,1.8207,1.8207,1.8207,1.8207,1.7772,1.7816,1.7831,1.7888,1.791,1.7951,1.797,1.7996,1.8021,1.8071,1.8102,1.812,1.8149,1.8189,1.8223,1.823,1.8244,1.8249,1.8257,1.8221,1.8217,1.8213,1.8204,1.8252,1.8252,1.8292,1.8292,1.8293]}]]